Location: Ciserano
(45.5833°N, 9.6000°E)
Time: 07:33:20
(UTC+00:00)

Cosmos 1295 Rocket - Pass Details

Date: 26 April 2021
Orbit: 944 x 993 km, 82.9° (Epoch: 13 May)

Event Time Altitude Azimuth Distance (km) Brightness Sun altitude
Rises 23:10:39 0° 351° (N) 3,691 8.7 -30.6°
Reaches altitude 10° 23:13:10 10° 351° (N) 2,745 7.7 -30.6°
Enters shadow 23:19:15 84° 341° (NNW) 1,000 4.4 -30.6°
